Terminal Aerodrome Forecast
Issued by NWS Portland, OR

Home | Current Version | Previous Version | Text Only | Print | Product List | Glossary On
Versions: 1 2 3 4 5 6 7 8 9 10 11 12 13 14 15 16 17 18 19 20 21 22 23 24 25 26 27 28 29 30 31 32 33 34 35 36
000
FTUS46 KPQR 180904 AAB
TAFSLE
TAF AMD
KSLE 180904Z 1809/1906 17004KT P6SM OVC060
     FM181200 17006KT P6SM SCT008 BKN020 OVC035
     FM181500 17007KT P6SM SCT025 BKN050
     FM190000 18009KT P6SM -RA SCT030 OVC060=

USA.gov is the U.S. government's official web portal to all federal, state and local government web resources and services.